BEIDOU-3 IGSO-3

Last updated on Tue Oct 08 2024 00:02:41 GMT+0000 (Coordinated Universal Time)

1 44709U 19073A 24281.42114614 -.00000156 00000+0 00000+0 0 9995 2 44709 55.8609 287.5340 0041249 190.9929 168.9204 1.00268253 18249
UTC large
Height (km)
Speed (km/s)
/
Latitude / Longitude
Inclination (degrees)
Orbital Period (minutes)
Azimuth
Elevation
Range (km)
Doppler Factor

Next 0 passes for location: London (51.5072 / 0.1276)

Sorry there are no passes over London.